Вернуться в каталог

STARLINK-32922

АктивенСвязьVLEO
NORAD 62926·PAYLOAD·🇺🇸 United States

Запущен Feb 8, 2025 с Cape Canaveral Space Force Station

Loading…

Ближайшие Пролёты (ближайшие 24 часа)

TLE

СвежийSource: CelesTrak SupGP

Эпоха: Sep 14, 2026, 14:32 UTC

1 62926C 25027V   26257.60604167  .00048240  00000+0  17476-2 0  2574
2 62926  43.0016 142.1255 0001410 261.0745  68.1468 15.27548747    16

Отслеживайте STARLINK-32922 в реальном времени с AllMySat

Download on the App Store